Home   Weather   Aligarh   Past weeks

Flag for India Past Weather in Aligarh, Uttar Pradesh, India — Yesterday and Last 2 Weeks

Now
90 °F

Haze.


Feels Like: 100 °F
Forecast: 78 / 98 °F
Wind: 7 mph from South

Location: New Delhi Palam Airport

Current Time: Sep 27, 2016 at 10:55:15 AM

Latest Report: Sep 27, 2016 at 10:30 AM


Visibility: 2 mi

Pressure: 29.83 "Hg

Humidity: 63%

Dew Point: 75 °F

Location of AligarhLocation

Past Weather in Aligarh — Graph

°F

Aligarh Temperature Yesterday

Maximum temperature yesterday: 95 °F (at 2:00 PM)
Minimum temperature yesterday: 81 °F (at 4:00 AM)
Average temperature yesterday: 87 °F

High & Low Weather Summary for the Past Weeks

 TemperatureHumidityPressure
High99 °F (Sep 20, 3:30 PM)89% (Sep 13, 6:00 AM)29.89 "Hg (Sep 13, 6:00 AM)
Low79 °F (Sep 13, 6:00 AM)34% (Sep 19, 2:00 PM)29.59 "Hg (Sep 20, 3:30 PM)
Average87 °F65%29.72 "Hg
* Reported Sep 12 9:30 AM — Sep 27 9:30 AM, Aligarh, Weather by CustomWeather, © 2016

Note: Actual official high and low records may vary slightly from our data, if they occured in-between our weather recording intervals... More about our weather records

Advertising

Aligarh Weather History for the Previous 24 Hours

Scroll right to see more
 ConditionsComfort  
Time TempWeatherWind HumidityBarometerVisibility
9:30 AM
Tue, Sep 27
86 °FHaze.7 mph70%29.83 "Hg2 mi
9:00 AM86 °FHaze.N/A70%29.83 "Hg2 mi
8:30 AM84 °FHaze.5 mph74%29.83 "Hg2 mi
8:00 AM82 °FFog.5 mph79%29.80 "Hg2 mi
7:30 AM81 °FFog.3 mph84%29.80 "Hg2 mi
7:00 AM81 °FFog.3 mph84%29.80 "Hg2 mi
6:30 AM81 °FFog.5 mph84%29.80 "Hg2 mi
6:00 AM81 °FFog.3 mph84%29.77 "Hg2 mi
5:30 AM81 °FFog.5 mph84%29.77 "Hg2 mi
5:00 AM81 °FFog.5 mph79%29.77 "Hg2 mi
4:30 AM81 °FFog.5 mph79%29.74 "Hg2 mi
4:00 AM81 °FFog.5 mph79%29.74 "Hg2 mi
3:30 AM82 °FFog.3 mph79%29.74 "Hg2 mi
3:00 AM82 °FFog.3 mph79%29.74 "Hg2 mi
2:30 AM82 °FFog.5 mph79%29.77 "Hg2 mi
2:00 AM82 °FFog.5 mph79%29.77 "Hg2 mi
1:30 AM82 °FFog.5 mph79%29.77 "Hg2 mi
1:00 AM82 °FFog.5 mph79%29.77 "Hg2 mi
12:30 AM82 °FFog.5 mph79%29.77 "Hg2 mi
12:00 AM84 °FHaze.5 mph74%29.77 "Hg2 mi
11:30 PM
Mon, Sep 26
84 °FHaze.6 mph74%29.77 "Hg2 mi
11:00 PM86 °FHaze.7 mph70%29.77 "Hg2 mi
10:30 PM86 °FHaze.6 mph70%29.77 "Hg2 mi
10:00 PM86 °FPassing clouds.No wind70%29.74 "Hg2 mi
9:30 PM86 °FPassing clouds.3 mph70%29.74 "Hg2 mi
9:00 PM86 °FPassing clouds.3 mph70%29.74 "Hg2 mi
8:00 PM88 °FPassing clouds.3 mph66%29.74 "Hg2 mi
7:30 PM88 °FPassing clouds.6 mph62%29.71 "Hg2 mi
7:00 PM90 °FPassing clouds.6 mph59%29.68 "Hg2 mi
6:30 PM90 °FScattered clouds.6 mph59%29.71 "Hg2 mi
6:00 PM91 °FScattered clouds.6 mph56%29.71 "Hg2 mi
5:30 PM91 °FScattered clouds.6 mph56%29.71 "Hg2 mi
5:00 PM91 °FScattered clouds.7 mph56%29.71 "Hg2 mi
4:30 PM93 °FScattered clouds.7 mph53%29.71 "Hg2 mi
4:00 PM93 °FScattered clouds.5 mph49%29.71 "Hg2 mi
3:30 PM93 °FScattered clouds.No wind49%29.71 "Hg2 mi
3:00 PM93 °FScattered clouds.No wind49%29.71 "Hg2 mi
2:30 PM93 °FScattered clouds.No wind47%29.74 "Hg2 mi
2:00 PM95 °FScattered clouds.No wind47%29.74 "Hg2 mi
1:30 PM93 °FScattered clouds.No wind49%29.74 "Hg2 mi
1:00 PM91 °FScattered clouds.5 mph52%29.77 "Hg2 mi
12:30 PM93 °FScattered clouds.7 mph49%29.77 "Hg2 mi
12:00 PM91 °FScattered clouds.7 mph52%29.77 "Hg2 mi
11:30 AM91 °FScattered clouds.5 mph52%29.80 "Hg2 mi
11:00 AM91 °FScattered clouds.7 mph56%29.80 "Hg2 mi
10:30 AM90 °FScattered clouds.6 mph67%29.80 "Hg2 mi
10:00 AM86 °FScattered clouds.6 mph75%29.80 "Hg2 mi
Weather by CustomWeather, © 2016

See weather overviewHow to use our weather pages